KOREASAT 6

Last updated on Sat Jul 05 2025 00:02:45 GMT+0000 (Coordinated Universal Time)

1 37265U 10070B 25185.59708825 -.00000097 00000+0 00000+0 0 9991 2 37265 0.0133 59.3212 0002180 53.6760 184.6757 1.00271748 53200
UTC large
Height (km)
Speed (km/s)
/
Latitude / Longitude
Inclination (degrees)
Orbital Period (minutes)
Azimuth
Elevation
Range (km)
Doppler Factor

Next 0 passes for location: London (51.5072 / 0.1276)

Sorry there are no passes over London.